Tracking 29892 objects as of 21-Nov-2024
HD Live streaming from Space Station
objects crossing your sky now

STARLINK-5956

Track STARLINK-5956 now!
10-day predictions
STARLINK-5956 is classified as:


NORAD ID: 55994
Int'l Code: 2023-042J
Perigee: 565.2 km
Apogee: 567.3 km
Inclination: 43.0 °
Period: 95.8 minutes
Semi major axis: 6937 km
RCS: Unknown
Launch date: March 24, 2022
Source: United States (US)
Launch site: AIR FORCE EASTERN TEST RANGE (AFETR)
Your satellite tracking list
Your tracking list is empty




NASA's NSSDC Master Catalog

Two Line Element Set (TLE):
1 55994U 23042J   24325.86484457 -.00000655  00000-0 -33422-4 0  9991
2 55994  43.0039 110.8446 0001514 271.1128  88.9541 15.02531940 91634
Source of the keplerian elements: AFSPC